This is the latest recevied weather packets stored in our database for station/object KC4JY. If no packets are shown the sender has not sent any weather packets the latest 10 day(s).
| Time | Temp. | Humidity | Pressure | Rain* | Wind** | Luminosity | Snow |
|---|---|---|---|---|---|---|---|
| 1778148059 | 18.89° C | 92% | 1010.5 hPa | 13.46 mm | - | - | - |
| 1778147149 | 18.89° C | 92% | 1010.8 hPa | 12.7 mm | - | - | - |
| 1778146231 | 18.89° C | 92% | 1011.3 hPa | 7.87 mm | - | - | - |
| 1778145330 | 18.89° C | 91% | 1011.2 hPa | 1.78 mm | - | - | - |
| 1778144412 | 18.89° C | 91% | 1011 hPa | 0.76 mm | - | - | - |
| 1778143511 | 18.89° C | 91% | 1010.8 hPa | 0.25 mm | - | - | - |
| 1778142668 | 18.89° C | 91% | 1010.7 hPa | 0 mm | - | - | - |
| 1778141759 | 18.89° C | 91% | 1010.9 hPa | 0 mm | - | - | - |
| 1778140833 | 18.89° C | 91% | 1011 hPa | 0 mm | - | - | - |
| 1778139932 | 18.89° C | 91% | 1010.8 hPa | 0 mm | - | - | - |
| 1778139014 | 18.89° C | 91% | 1011.2 hPa | 0 mm | - | - | - |
| 1778138113 | 18.89° C | 91% | 1011 hPa | 0.25 mm | - | - | - |
| 1778137253 | 18.89° C | 90% | 1011.2 hPa | 0.25 mm | - | - | - |
| 1778136351 | 18.89° C | 90% | 1011.3 hPa | 0.51 mm | - | - | - |
| 1778135434 | 18.89° C | 89% | 1011.6 hPa | 0.76 mm | - | - | - |
| 1778134531 | 18.89° C | 89% | 1012.1 hPa | 2.79 mm | - | - | - |
| 1778133619 | 18.89° C | 88% | 1012.4 hPa | 3.05 mm | - | - | - |
| 1778132712 | 18.89° C | 87% | 1013 hPa | 2.79 mm | - | - | - |
| 1778131851 | 19.44° C | 85% | 1013 hPa | 2.54 mm | - | - | - |
| 1778130947 | 20.56° C | 80% | 1013 hPa | 0.25 mm | - | - | - |
| 1778130034 | 21.11° C | 77% | 1012.4 hPa | 0 mm | - | - | - |
| 1778129133 | 21.11° C | 76% | 1012.4 hPa | 0 mm | - | - | - |
| 1778128205 | 21.11° C | 76% | 1011.9 hPa | 0 mm | - | - | - |
| 1778127313 | 21.11° C | 75% | 1011.8 hPa | 0 mm | - | - | - |
| 1778126445 | 21.67° C | 74% | 1012.2 hPa | 0 mm | - | - | - |
* Rain latest hour (hover to see other rain measurements)
** Current wind speed in m/s (hover to see current wind gust speed)